Location: Leuk
(46.3174°N, 7.6341°E)
Time: 16:08:24
(UTC+00:00)

Cosmos 1470 Rocket - Pass Details

Date: 09 March 2021
Orbit: 603 x 634 km, 82.5° (Epoch: 17 April)

Event Time Altitude Azimuth Distance (km) Brightness Sun altitude
Rises 04:29:05 0° 353° (N) 2,888 7.0 -15.4°
Reaches altitude 10° 04:31:20 10° 356° (N) 1,974 6.2 -15.0°
Maximum altitude 04:35:41 66° 79° (E) 664 3.9 -14.3°
Drops below altitude 10° 04:39:58 10° 163° (SSE) 1,946 6.2 -13.5°
Sets 04:42:10 0° 166° (SSE) 2,842 7.1 -13.2°
